Temperature
13 13 14 14 14 14 14 15 15 16 16 16 16 15 15 15 15 15 15 15 15 15 14 14 14 14 14 14 14 14 14 13 13 14 14 14 14 14 14 15 15 15 15
13 14 14 14 14 14 15 15 15 16 16 16 15 15 15 15 15 15 15 15 15 14 14 14 14 13 14 14 14 13 13 13 13 13 13 14 14 14 14 14 15 15 15
14 14 14 14 14 14 15 15 15 16 15 15 15 15 15 15 15 14 14 14 14 14 14 14 13 13 13 13 13 13 13 13 13 13 13 13 13 13 14 14 14 15 15
14 14 14 14 14 15 15 15 16 15 15 15 15 15 15 15 15 14 14 14 14 14 14 14 14 13 13 13 13 13 13 13 13 13 13 13 13 13 13 14 14 14 14
13 14 14 14 15 15 15 15 15 15 15 15 15 15 15 15 14 14 14 14 14 14 14 14 14 14 14 13 13 13 13 13 13 13 13 13 13 13 13 13 13 14 14
13 13 14 14 14 15 15 15 15 15 15 15 15 15 15 14 15 15 14 14 14 14 14 14 14 14 14 14 14 14 13 13 13 13 13 13 13 13 13 13 13 13 13
12 13 13 13 13 13 14 14 14 14 15 15 14 14 14 14 15 15 15 14 14 14 14 14 14 13 14 13 13 14 13 13 13 13 13 13 13 13 13 12 12 13 13
11 12 12 12 12 12 13 13 13 13 13 13 14 13 14 14 14 14 14 14 14 14 14 14 14 14 13 13 13 13 13 13 13 13 12 12 12 12 12 12 12 12 12
11 11 11 11 11 12 12 12 12 12 12 12 13 13 13 13 13 13 14 13 13 13 13 13 13 13 13 14 14 14 13 13 13 13 13 13 12 12 12 12 12 12 12
11 11 11 11 11 11 11 11 12 12 12 12 12 12 12 12 12 12 13 13 13 13 13 13 13 13 13 14 13 13 13 13 13 13 13 13 13 12 12 12 12 12 12
11 11 11 11 11 11 11 11 11 11 11 11 11 11 11 12 12 12 12 12 12 12 13 13 13 13 13 13 13 13 13 13 13 13 13 13 13 12 12 12 12 12 12
11 11 11 11 11 11 11 11 11 11 11 11 11 11 11 11 11 11 12 12 12 12 12 12 12 13 13 13 13 13 13 13 13 13 13 12 12 12 12 12 12 12 12
11 11 11 11 11 11 11 11 11 11 11 10 10 10 10 10 10 11 11 11 11 11 12 12 12 12 12 13 13 13 13 13 13 13 12 12 12 12 12 12 12 11 11
12 11 11 11 11 11 11 10 10 10 10 10 10 10 10 10 10 10 10 11 11 11 11 11 12 12 12 12 12 12 12 12 12 12 12 12 12 12 11 11 11 11 11
12 12 11 11 11 10 10 10 10 10 10 10 10 10 10 9 10 10 10 10 10 10 10 10 10 10 11 11 11 11 12 12 12 11 11 11 11 11 11 11 11 11 10
13 12 11 11 11 10 10 10 10 10 9 9 9 10 9 9 9 10 10 10 10 10 10 10 10 10 10 10 10 11 11 11 11 11 10 10 10 10 10 10 10 10 10
13 12 11 11 11 10 10 10 10 10 10 9 9 10 10 9 9 9 9 9 9 9 10 10 10 10 10 10 10 10 10 10 10 10 10 10 10 10 9 9 9 9 9
12 12 11 11 11 11 10 10 10 10 9 9 9 9 9 9 9 9 9 9 9 9 9 9 9 9 9 9 9 9 9 9 9 9 9 9 9 9 9 9 9 9 8
12 12 11 11 11 11 10 10 10 10 10 10 9 9 9 9 9 9 9 9 9 8 8 8 8 8 9 9 9 9 9 9 9 9 9 8 8 8 8 8 8 8 8
13 12 12 11 11 11 10 10 10 10 10 10 10 9 9 9 9 9 8 8 8 8 8 8 8 8 8 8 8 8 8 8 8 8 8 8 7 7 7 7 7 7 7
13 12 12 11 11 11 10 10 10 10 10 10 10 9 9 9 8 8 8 8 7 7 7 7 8 8 8 8 8 8 8 8 7 7 7 7 7 7 7 7 7 7 6
13 12 11 11 11 11 10 10 10 10 9 9 9 9 9 9 8 8 8 7 7 7 7 7 8 8 8 8 8 8 8 8 7 7 6 6 6 6 6 6 6 6 6
13 12 12 11 11 11 11 10 10 10 9 9 9 8 8 8 8 8 8 8 8 8 8 8 8 8 8 8 8 7 7 7 7 7 6 6 5 5 5 5 5 5 5
13 12 12 11 11 11 10 10 10 10 9 9 9 8 8 8 8 8 8 8 8 8 8 8 8 8 8 8 8 8 8 8 7 7 6 6 5 5 5 5 5 5 5
13 13 12 12 11 11 10 10 10 10 9 9 9 8 8 8 8 8 8 8 8 8 8 8 8 8 8 8 8 8 8 8 8 7 6 6 6 5 5 5 5 5 5
14 13 12 12 11 11 11 10 10 10 10 9 9 9 8 8 8 8 8 8 9 9 9 9 9 9 8 8 8 8 8 8 7 7 6 6 5 5 5 5 5 4 4
Wind_Speed
6 6 5 3 1 4 6 7 6 6 6 6 6 7 7 6 6 4 3 3 4 5 6 7 8 8 7 7 7 7 8 8 9 5 3 5 6 6 5 8 10 11 13
4 3 2 2 5 7 8 6 5 5 6 7 7 7 6 6 5 5 4 4 4 4 5 5 6 6 7 7 7 8 8 8 8 8 6 6 9 8 7 7 7 9 11
2 0 2 4 6 6 4 4 5 6 6 6 7 7 7 7 6 5 5 4 4 4 4 5 5 5 6 6 7 7 7 8 8 8 7 6 6 5 6 7 8 7 10
2 1 1 2 2 2 1 2 3 4 5 6 7 7 7 7 7 7 6 5 5 5 4 4 4 4 5 4 4 5 6 7 7 8 7 5 5 4 5 6 7 7 8
6 5 4 4 3 2 1 1 2 3 5 6 6 7 7 7 7 7 7 7 7 6 6 5 4 2 5 4 4 4 4 5 5 6 6 5 5 4 5 5 6 6 7
10 9 8 7 6 6 5 3 2 1 2 3 4 5 6 6 1 3 8 8 8 8 7 6 5 5 6 6 6 5 5 4 3 3 4 5 6 6 6 5 5 5 5
11 10 9 9 8 8 7 6 5 4 3 2 2 2 3 1 3 5 9 9 10 8 8 7 6 5 5 6 7 9 8 7 5 5 4 3 3 3 5 6 6 6 4
11 11 10 9 9 8 8 8 7 6 6 5 5 4 4 6 8 5 6 11 10 9 9 8 8 8 7 5 5 6 5 4 5 6 4 2 1 1 1 2 2 2 1
11 11 11 10 10 10 9 9 8 7 7 7 7 7 6 7 12 10 7 7 7 8 8 8 8 8 5 2 7 6 5 3 3 4 4 2 2 1 1 1 2 2 2
10 10 9 9 9 9 9 8 7 6 6 6 7 7 7 8 12 13 10 3 4 4 5 6 4 4 2 4 7 6 5 2 2 4 5 5 4 5 5 3 2 2 1
8 8 8 8 8 8 8 7 7 6 6 6 6 7 7 8 10 13 12 5 4 3 3 3 2 3 2 4 7 6 3 3 2 2 2 2 1 1 2 2 1 2 2
5 6 7 7 7 7 7 7 8 7 7 7 7 7 7 7 8 10 11 9 8 3 1 1 2 2 1 3 4 1 2 3 2 1 1 1 1 1 1 1 1 0 0
4 4 5 5 6 6 7 7 7 7 7 7 7 7 7 7 7 7 7 7 7 3 3 5 4 2 2 3 5 3 3 2 2 2 2 2 2 2 1 1 1 1 1
3 4 4 5 6 6 5 5 6 7 7 7 7 7 7 7 8 8 6 4 2 2 3 4 5 5 5 6 5 3 2 2 1 2 3 3 2 2 1 1 1 2 1
2 3 4 5 5 5 5 5 6 7 7 6 6 6 7 7 10 11 7 5 4 3 2 3 3 4 5 5 5 5 4 3 3 3 3 2 2 1 1 1 2 2 3
2 4 4 4 4 4 4 5 5 4 6 9 10 9 6 8 10 11 12 11 8 6 4 5 5 5 5 5 5 5 5 4 4 3 3 2 2 2 2 1 2 3 3
2 3 3 4 4 4 4 4 5 5 4 7 11 12 12 12 13 12 11 12 13 10 8 7 7 6 6 6 6 5 5 5 5 4 4 4 3 3 2 2 3 3 4
3 4 3 3 4 4 5 5 5 4 4 5 7 11 11 13 14 14 11 9 10 10 8 8 7 7 6 6 6 6 5 5 5 5 4 4 4 4 3 4 4 4 5
3 3 3 3 3 4 4 4 4 5 5 4 4 6 7 7 10 13 11 9 9 8 8 8 7 7 7 6 6 6 6 5 5 5 4 4 4 4 4 4 4 4 5
3 4 2 2 3 3 3 3 4 4 4 4 5 5 5 6 7 8 8 8 7 7 7 7 7 7 6 6 6 5 5 5 5 5 4 4 4 4 5 5 5 5 5
4 5 4 2 2 2 2 3 3 3 4 4 5 6 6 5 6 6 6 7 7 6 6 6 6 6 6 5 5 5 5 5 5 5 5 5 5 5 5 5 5 5 5
3 3 3 2 2 2 2 2 2 3 4 4 3 4 3 4 4 5 5 5 5 5 5 5 5 5 5 5 5 5 5 5 5 5 5 5 5 5 5 5 5 5 6
3 3 3 3 2 3 2 2 2 2 2 3 2 3 3 3 4 4 4 4 4 5 5 5 4 4 5 5 5 5 5 5 4 5 5 5 5 5 5 5 6 6 6
3 4 3 3 3 3 3 2 2 2 2 2 2 2 2 3 3 3 3 3 3 4 4 5 5 5 5 5 5 6 7 7 6 4 5 5 5 5 5 5 5 6 6
4 4 4 4 4 4 3 3 3 3 3 3 2 2 2 2 2 2 2 3 3 4 4 4 4 4 5 6 7 7 8 9 8 7 4 4 5 6 5 6 5 6 6
5 5 5 4 4 4 4 4 4 4 3 3 3 2 2 2 2 2 2 2 2 3 3 4 4 4 4 5 7 7 7 7 8 8 5 5 6 6 6 5 6 6 6
Wind_Direction
60 59 54 44 321 263 254 246 226 207 190 190 196 201 191 189 190 190 215 208 231 238 238 243 247 245 240 233 230 228 226 227 239 240 239 245 233 235 205 227 232 217 213
38 41 10 280 257 249 244 232 216 208 203 203 195 203 198 200 202 199 204 216 232 245 248 248 252 248 245 237 230 229 228 226 235 242 232 239 250 254 251 239 231 230 234
15 355 261 253 249 248 241 224 215 209 208 209 207 209 205 208 209 211 211 222 229 239 248 255 257 252 250 244 238 237 233 230 228 235 236 227 236 243 248 247 239 236 237
359 352 313 297 293 279 259 240 225 220 220 221 221 220 218 218 221 221 221 225 230 231 235 245 254 256 263 260 253 252 245 239 231 235 236 224 220 222 233 240 241 229 232
44 44 33 31 33 33 22 302 257 244 240 238 237 233 229 229 231 231 226 228 231 228 227 229 236 299 344 311 296 285 265 253 242 238 238 228 215 200 219 226 239 244 242
49 46 41 42 44 41 39 34 21 323 269 254 248 242 236 237 198 262 256 237 234 230 228 227 213 217 221 234 263 287 300 292 289 261 248 242 234 223 219 215 222 232 239
48 47 44 45 46 44 45 47 43 42 39 23 342 286 260 351 10 261 248 251 240 238 234 227 218 224 228 235 214 222 236 237 264 293 287 282 276 245 223 217 217 225 236
48 48 46 47 50 50 50 48 44 46 49 43 36 34 42 33 12 330 264 244 242 236 234 235 229 228 221 249 249 244 250 238 235 253 287 322 357 11 235 229 221 216 208
46 46 46 48 48 47 46 45 42 47 53 53 48 42 41 31 16 1 319 248 243 236 232 235 241 242 132 216 264 264 259 247 203 247 314 355 51 100 135 162 159 178 212
45 46 47 46 44 42 41 40 42 47 49 54 52 42 35 27 20 11 349 291 264 246 233 229 222 264 110 217 251 262 270 269 222 192 208 209 214 189 198 230 217 223 230
42 43 42 42 41 37 35 34 34 40 43 44 47 42 34 26 21 19 7 351 329 288 243 229 175 141 259 252 262 271 320 323 270 225 194 174 173 178 197 220 241 255 260
42 42 41 37 32 30 33 31 30 30 35 35 33 33 26 24 22 15 12 8 346 341 352 359 65 51 286 273 255 83 94 262 255 207 170 141 118 95 70 58 29 322 272
43 44 39 44 42 34 34 35 36 34 34 31 27 22 15 11 12 7 6 8 360 9 39 42 39 28 191 137 98 125 180 199 179 158 134 106 84 88 84 64 31 24 99
35 36 36 39 46 49 46 41 42 36 32 28 22 17 10 12 9 360 355 0 19 53 81 97 96 73 80 85 108 115 107 94 114 114 109 112 116 108 80 34 359 332 294
34 42 41 45 45 53 63 52 47 53 29 12 8 5 7 9 4 357 1 12 20 40 52 87 88 90 87 86 84 82 88 100 97 100 109 113 104 97 77 30 350 326 322
39 46 47 50 51 53 73 100 82 49 39 30 22 12 36 28 14 25 33 34 33 25 54 75 72 70 71 74 78 77 73 70 72 78 78 72 60 46 48 29 347 326 323
71 73 70 56 57 57 60 67 93 116 112 65 41 36 39 35 34 33 37 47 41 43 59 59 57 57 58 59 59 62 59 52 50 57 56 49 39 27 16 1 347 337 333
107 92 89 78 62 58 63 67 63 68 76 73 68 50 41 42 39 31 27 50 53 50 51 51 51 50 53 55 56 56 57 55 51 50 45 36 25 15 6 359 357 354 341
129 120 106 90 83 72 74 77 77 74 68 53 56 69 53 57 55 38 35 54 55 51 49 47 43 42 43 44 45 46 46 43 40 40 36 28 20 12 4 356 355 0 339
121 90 105 127 115 95 87 85 82 80 73 61 47 35 42 50 52 49 48 50 52 50 47 46 42 38 36 36 35 32 36 36 31 28 20 13 8 2 358 355 353 350 346
142 142 168 169 121 103 99 88 87 90 85 76 62 41 23 55 58 55 53 50 46 45 44 44 41 34 28 26 27 27 28 27 20 10 5 1 358 356 356 356 356 355 349
159 159 164 141 141 143 128 118 100 93 99 101 99 89 55 58 62 61 58 52 48 44 38 42 45 37 28 25 24 26 25 22 15 2 355 355 356 0 2 1 2 2 359
183 174 174 165 161 155 186 162 149 128 113 110 107 101 91 76 70 68 63 56 48 46 44 47 49 42 37 37 31 22 16 14 5 354 349 354 1 7 8 10 10 5 7
199 195 194 185 184 194 193 184 178 169 158 145 139 117 105 101 86 78 71 61 58 60 58 59 55 51 48 42 35 33 25 6 354 0 6 10 16 16 20 21 18 14 13
214 205 202 199 196 200 198 196 194 186 184 190 185 166 144 131 110 92 80 72 67 71 71 72 72 62 52 48 43 40 29 21 17 9 30 38 41 39 38 36 32 28 26
217 209 206 203 203 206 208 206 201 196 196 198 200 197 183 157 134 121 105 89 92 93 87 80 71 66 54 49 47 39 34 33 30 12 26 58 55 46 41 47 46 42 43
Height
1494 1496 1498 1501 1504 1507 1510 1512 1514 1516 1517 1518 1519 1520 1521 1521 1520 1520 1520 1519 1518 1518 1517 1516 1516 1516 1515 1516 1517 1518 1519 1521 1522 1523 1525 1528 1529 1531 1532 1532 1534 1534 1535
1498 1500 1502 1504 1506 1509 1511 1512 1513 1515 1516 1517 1518 1519 1519 1519 1519 1519 1518 1518 1517 1516 1516 1515 1514 1514 1513 1513 1514 1515 1515 1516 1518 1518 1520 1522 1524 1526 1527 1528 1529 1530 1532
1502 1503 1504 1506 1508 1509 1511 1511 1513 1514 1515 1516 1516 1517 1518 1518 1518 1518 1517 1517 1517 1516 1515 1514 1514 1512 1512 1511 1511 1512 1512 1513 1513 1514 1515 1517 1519 1521 1522 1523 1525 1526 1527
1504 1504 1506 1507 1508 1509 1510 1510 1511 1512 1513 1514 1515 1515 1516 1516 1516 1516 1516 1516 1516 1515 1514 1513 1513 1512 1511 1511 1510 1510 1510 1510 1510 1510 1511 1512 1514 1515 1516 1518 1520 1521 1522
1504 1505 1505 1506 1507 1507 1508 1509 1509 1510 1511 1512 1512 1512 1513 1513 1513 1514 1514 1514 1515 1514 1514 1513 1512 1511 1510 1509 1509 1509 1508 1507 1507 1507 1507 1508 1509 1510 1511 1513 1514 1516 1517
1506 1505 1505 1505 1506 1506 1506 1507 1507 1508 1508 1508 1508 1509 1509 1509 1510 1510 1511 1512 1513 1513 1513 1512 1511 1510 1509 1509 1508 1507 1507 1507 1506 1505 1505 1505 1505 1506 1507 1508 1509 1511 1512
1509 1507 1507 1506 1506 1506 1506 1506 1506 1505 1505 1505 1505 1505 1506 1506 1505 1506 1507 1508 1509 1510 1511 1511 1510 1509 1508 1509 1508 1507 1506 1505 1505 1504 1504 1503 1503 1502 1503 1503 1504 1506 1507
1513 1511 1510 1509 1508 1507 1506 1505 1505 1504 1504 1503 1503 1503 1502 1502 1502 1502 1503 1504 1505 1506 1507 1508 1508 1509 1508 1508 1508 1508 1507 1506 1504 1503 1503 1502 1502 1501 1501 1501 1501 1502 1503
1517 1515 1514 1512 1511 1509 1508 1507 1506 1505 1504 1503 1502 1501 1500 1499 1499 1499 1499 1500 1501 1502 1503 1504 1505 1506 1505 1505 1506 1507 1506 1505 1504 1503 1502 1501 1501 1500 1500 1500 1500 1500 1501
1521 1519 1517 1516 1514 1512 1511 1509 1508 1507 1505 1504 1503 1501 1500 1499 1498 1497 1496 1497 1497 1498 1499 1500 1501 1502 1502 1503 1504 1505 1505 1504 1503 1502 1501 1501 1500 1500 1499 1499 1500 1500 1500
1524 1522 1520 1518 1517 1515 1513 1511 1509 1508 1506 1505 1503 1502 1500 1498 1497 1496 1495 1495 1494 1495 1496 1497 1497 1498 1499 1500 1501 1502 1502 1502 1502 1502 1501 1501 1500 1500 1499 1499 1499 1499 1499
1526 1524 1523 1521 1519 1516 1514 1512 1510 1509 1507 1506 1504 1503 1501 1499 1497 1495 1494 1493 1493 1493 1493 1494 1494 1495 1496 1497 1498 1499 1499 1500 1500 1500 1500 1500 1500 1499 1499 1498 1498 1498 1498
1528 1527 1525 1523 1520 1518 1516 1514 1512 1510 1508 1507 1505 1504 1502 1500 1498 1495 1494 1492 1492 1491 1491 1491 1492 1493 1494 1495 1496 1497 1498 1498 1499 1499 1499 1499 1499 1499 1498 1498 1498 1497 1497
1530 1528 1527 1525 1523 1520 1517 1515 1514 1512 1511 1509 1507 1505 1503 1501 1498 1496 1494 1492 1491 1491 1491 1491 1491 1492 1492 1493 1494 1495 1496 1497 1497 1498 1498 1498 1498 1498 1498 1497 1497 1496 1496
1531 1530 1528 1526 1524 1522 1520 1518 1516 1515 1513 1511 1509 1508 1505 1503 1500 1497 1494 1492 1492 1491 1491 1491 1492 1492 1493 1493 1494 1495 1496 1496 1497 1497 1498 1498 1498 1498 1497 1497 1496 1496 1495
1532 1531 1529 1528 1526 1524 1522 1521 1519 1517 1516 1514 1512 1510 1508 1505 1502 1499 1496 1495 1494 1493 1493 1493 1494 1494 1495 1495 1496 1496 1497 1497 1498 1498 1498 1498 1498 1498 1497 1496 1496 1495 1494
1532 1531 1530 1529 1528 1526 1525 1523 1522 1520 1518 1517 1515 1513 1510 1508 1505 1502 1500 1499 1497 1497 1496 1496 1497 1497 1498 1498 1498 1498 1498 1499 1499 1499 1499 1498 1498 1498 1497 1496 1496 1495 1494
1532 1531 1531 1530 1529 1528 1526 1525 1524 1523 1521 1520 1518 1515 1513 1511 1509 1506 1505 1503 1502 1501 1500 1500 1500 1500 1501 1501 1501 1500 1500 1500 1500 1499 1499 1499 1498 1498 1497 1496 1495 1494 1493
1533 1532 1532 1531 1530 1529 1528 1527 1526 1525 1523 1522 1520 1518 1516 1514 1512 1510 1509 1507 1506 1505 1505 1504 1504 1503 1503 1503 1502 1502 1502 1501 1501 1500 1499 1498 1498 1497 1496 1495 1494 1493 1491
1533 1532 1532 1532 1532 1531 1530 1529 1528 1527 1525 1524 1522 1521 1519 1517 1515 1513 1511 1510 1509 1509 1508 1507 1506 1506 1505 1505 1504 1503 1503 1502 1501 1500 1499 1499 1498 1497 1496 1495 1494 1492 1490
1533 1532 1532 1533 1533 1532 1532 1531 1530 1529 1527 1526 1524 1522 1520 1519 1517 1516 1514 1513 1512 1511 1510 1509 1508 1507 1506 1506 1505 1504 1503 1502 1501 1500 1499 1498 1498 1497 1496 1494 1493 1491 1489
1534 1533 1533 1533 1533 1533 1532 1532 1531 1530 1529 1527 1526 1524 1522 1520 1519 1517 1516 1515 1514 1513 1511 1510 1509 1508 1507 1506 1505 1504 1503 1502 1501 1499 1499 1498 1497 1497 1495 1494 1492 1490 1488
1533 1533 1533 1533 1533 1532 1532 1532 1532 1531 1530 1529 1527 1526 1524 1522 1521 1519 1518 1516 1515 1514 1512 1511 1510 1509 1507 1506 1505 1504 1503 1502 1501 1499 1499 1498 1497 1496 1495 1494 1492 1490 1488
1533 1533 1533 1533 1532 1532 1533 1532 1532 1531 1530 1529 1528 1527 1525 1523 1522 1520 1519 1517 1516 1515 1513 1512 1511 1510 1508 1507 1506 1504 1503 1502 1501 1500 1499 1498 1497 1496 1495 1493 1492 1490 1489
1532 1532 1532 1532 1531 1532 1532 1532 1531 1531 1530 1529 1528 1527 1526 1524 1523 1522 1520 1519 1517 1516 1515 1513 1512 1511 1510 1508 1507 1505 1504 1502 1501 1500 1499 1499 1498 1496 1495 1494 1492 1491 1490
1530 1530 1530 1530 1530 1530 1531 1531 1531 1530 1530 1529 1528 1527 1526 1525 1523 1522 1521 1520 1518 1517 1516 1515 1513 1512 1511 1510 1508 1507 1505 1504 1503 1501 1501 1500 1499 1498 1497 1496 1494 1493 1491